Midland, MI

3:30 AM EDT on May 30, 2017 (GMT -0400)
Barstow

Weather History for KIKW - December, 2013

Change the Weather History Date:

Sunday, December 8, 2013

  Actual Average (KMBS) Record (KMBS)
Temperature  
Mean Temperature 16 °F -  
Max Temperature 26 °F 36 °F 44 °F (1999)
Min Temperature 6 °F 24 °F 1 °F (2005)
Degree Days  
Heating Degree Days 49    
Moisture  
Dew Point 12 °F    
Average Humidity 82    
Maximum Humidity 96    
Minimum Humidity 64    
Precipitation  
Precipitation 0.00 in - - ()
Sea Level Pressure  
Sea Level Pressure 30.37 in    
Wind  
Wind Speed 3 mph (ENE)    
Max Wind Speed 13 mph    
Max Gust Speed 16 mph    
Visibility 8 miles    
Events Snow    
Averages and records for this station are not official NWS values.
T = Trace of Precipitation, MM = Missing Value Source: NWS Daily Summary

Daily Weather History Graph

Daily Weather History Graph

Search for Another Location

Airport or City:

Trip Planner

Search our weather history database for the weather conditions in past years. The results will help you decide how hot, cold, wet, or windy it might be!

Date:

Astronomy

Dec. 08, 2013 Rise Set
Actual Time 7:58 AM EST 5:00 PM EST
Civil Twilight 7:25 AM EST 5:32 PM EST
Nautical Twilight 6:49 AM EST 6:08 PM EST
Astronomical Twilight 6:14 AM EST 6:43 PM EST
Moon 12:09 PM EST (12/8) 11:58 PM EST (12/8)
Length of Visible Light 10h 07m
Length of Day
9h 02m
Waxing Crescent, 40% of the Moon is Illuminated
Dec 8
Waxing Crescent
Dec 9
First Quarter
Dec 17
Full
Dec 25
Last Quarter
Jan 1
New

Hourly Weather History & Observations

Time (EST) Temp. Windchill Dew Point Humidity Pressure Visibility Wind Dir Wind Speed Gust Speed Precip Events Conditions
12:12 AM 8.8 °F - 5.9 °F 88% 30.57 in 10.0 mi Calm Calm - N/A   Clear
12:33 AM 8.2 °F - 5.4 °F 88% 30.56 in 10.0 mi Calm Calm - N/A   Clear
12:53 AM 7.9 °F - 5.0 °F 88% 30.56 in 10.0 mi Calm Calm - N/A   Clear
1:12 AM 8.1 °F - 5.4 °F 89% 30.55 in 10.0 mi Calm Calm - N/A   Clear
1:33 AM 8.4 °F - 5.9 °F 89% 30.55 in 10.0 mi Calm Calm - N/A   Clear
1:53 AM 7.5 °F - 4.6 °F 88% 30.54 in 10.0 mi Calm Calm - N/A   Clear
2:12 AM 7.3 °F - 4.6 °F 89% 30.53 in 10.0 mi Calm Calm - N/A   Clear
2:33 AM 6.6 °F - 3.6 °F 87% 30.54 in 10.0 mi Calm Calm - N/A   Clear
2:53 AM 6.8 °F - 3.7 °F 87% 30.54 in 10.0 mi Calm Calm - N/A   Clear
3:12 AM 8.1 °F - 5.0 °F 87% 30.56 in 10.0 mi Calm Calm - N/A   Clear
3:33 AM 7.7 °F - 4.5 °F 87% 30.56 in 10.0 mi Calm Calm - N/A   Clear
3:53 AM 7.2 °F - 4.1 °F 87% 30.56 in 10.0 mi Calm Calm - N/A   Clear
4:12 AM 7.7 °F - 4.8 °F 88% 30.57 in 10.0 mi Calm Calm - N/A   Clear
4:33 AM 9.5 °F - 6.3 °F 87% 30.57 in 10.0 mi Calm Calm - N/A   Clear
4:53 AM 8.4 °F - 5.2 °F 87% 30.56 in 10.0 mi Calm Calm - N/A   Clear
5:12 AM 8.2 °F - 5.2 °F 87% 30.56 in 10.0 mi Calm Calm - N/A   Clear
5:33 AM 9.0 °F - 5.9 °F 87% 30.55 in 10.0 mi Calm Calm - N/A   Clear
5:52 AM 10.0 °F - 6.8 °F 87% 30.54 in 10.0 mi Calm Calm - N/A   Clear
6:13 AM 10.8 °F - 7.3 °F 86% 30.53 in 10.0 mi Calm Calm - N/A   Scattered Clouds
6:33 AM 11.1 °F - 7.5 °F 85% 30.53 in 10.0 mi Calm Calm - N/A   Mostly Cloudy
6:52 AM 11.5 °F - 7.9 °F 85% 30.53 in 10.0 mi Calm Calm - N/A   Mostly Cloudy
7:13 AM 11.3 °F - 7.7 °F 85% 30.52 in 10.0 mi Calm Calm - N/A   Mostly Cloudy
7:33 AM 12.2 °F - 7.9 °F 83% 30.52 in 10.0 mi Calm Calm - N/A   Overcast
7:52 AM 12.6 °F - 8.8 °F 85% 30.51 in 10.0 mi Calm Calm - N/A   Overcast
8:13 AM 12.7 °F - 9.0 °F 85% 30.50 in 10.0 mi Calm Calm - N/A   Mostly Cloudy
8:33 AM 13.3 °F - 9.5 °F 85% 30.50 in 10.0 mi Calm Calm - N/A   Scattered Clouds
8:49 AM 14.2 °F 8.4 °F 10.0 °F 84% 30.50 in 10.0 mi East 3.5 mph - N/A   Mostly Cloudy
9:13 AM 14.7 °F - 9.3 °F 79% 30.50 in 10.0 mi Calm Calm - N/A   Mostly Cloudy
9:33 AM 15.3 °F - 9.9 °F 79% 30.49 in 10.0 mi Calm Calm - N/A   Mostly Cloudy
9:52 AM 15.4 °F - 9.7 °F 78% 30.50 in 10.0 mi Calm Calm - N/A   Scattered Clouds
10:13 AM 15.8 °F - 9.7 °F 77% 30.50 in 10.0 mi Calm Calm - N/A   Clear
10:32 AM 16.5 °F 9.4 °F 9.7 °F 74% 30.50 in 10.0 mi ENE 4.6 mph - N/A   Clear
10:53 AM 17.4 °F 10.4 °F 10.4 °F 74% 30.49 in 10.0 mi ENE 4.6 mph - N/A   Clear
11:13 AM 17.6 °F 9.3 °F 10.2 °F 73% 30.47 in 10.0 mi ENE 5.8 mph - N/A   Clear
11:32 AM 17.8 °F 9.6 °F 10.2 °F 72% 30.46 in 10.0 mi East 5.8 mph - N/A   Clear
11:53 AM 18.3 °F 9.1 °F 10.9 °F 73% 30.44 in 10.0 mi East 6.9 mph - N/A   Clear
12:13 PM 18.5 °F 10.4 °F 11.5 °F 74% 30.43 in 10.0 mi East 5.8 mph - N/A   Clear
12:32 PM 19.4 °F 10.4 °F 12.2 °F 74% 30.43 in 10.0 mi East 6.9 mph - N/A   Clear
12:53 PM 19.9 °F 11.1 °F 12.2 °F 72% 30.41 in 10.0 mi ENE 6.9 mph - N/A   Scattered Clouds
1:13 PM 21.0 °F 11.4 °F 13.3 °F 72% 30.41 in 10.0 mi ESE 8.1 mph - N/A   Scattered Clouds
1:32 PM 21.2 °F 14.9 °F 12.9 °F 70% 30.40 in 10.0 mi East 4.6 mph - N/A   Mostly Cloudy
1:53 PM 21.2 °F 12.6 °F 12.2 °F 68% 30.38 in 10.0 mi East 6.9 mph - N/A   Mostly Cloudy
2:13 PM 21.2 °F 13.6 °F 11.5 °F 66% 30.37 in 10.0 mi East 5.8 mph - N/A   Scattered Clouds
2:32 PM 21.2 °F 13.6 °F 12.0 °F 68% 30.35 in 10.0 mi ENE 5.8 mph - N/A   Clear
2:53 PM 21.7 °F 12.3 °F 12.4 °F 67% 30.34 in 10.0 mi ENE 8.1 mph - N/A   Scattered Clouds
3:12 PM 21.2 °F 11.7 °F 12.0 °F 68% 30.33 in 10.0 mi ENE 8.1 mph - N/A   Overcast
3:33 PM 21.2 °F 10.9 °F 11.3 °F 66% 30.30 in 10.0 mi NE 9.2 mph - N/A   Overcast
3:53 PM 21.6 °F 12.1 °F 11.7 °F 66% 30.30 in 10.0 mi East 8.1 mph - N/A   Mostly Cloudy
4:12 PM 21.6 °F 9.9 °F 11.1 °F 64% 30.28 in 10.0 mi ENE 11.5 mph - N/A   Mostly Cloudy
4:33 PM 21.6 °F 9.3 °F 11.3 °F 65% 30.27 in 10.0 mi ENE 12.7 mph - N/A   Overcast
4:53 PM 21.9 °F 11.7 °F 11.8 °F 65% 30.25 in 10.0 mi ENE 9.2 mph - N/A   Overcast
5:12 PM 22.1 °F 11.3 °F 12.2 °F 66% 30.25 in 10.0 mi ENE 10.4 mph 16.1 mph N/A Snow Light Snow
5:33 PM 21.9 °F 11.7 °F 13.8 °F 71% 30.24 in 4.0 mi ENE 9.2 mph - N/A Snow Light Snow
5:53 PM 21.2 °F 11.7 °F 15.6 °F 79% 30.22 in 3.0 mi ENE 8.1 mph - N/A Snow Light Snow
6:12 PM 21.2 °F 13.6 °F 16.7 °F 83% 30.22 in 3.0 mi NE 5.8 mph - N/A Snow Light Snow
6:33 PM 21.4 °F 13.8 °F 18.0 °F 87% 30.20 in 2.5 mi NE 5.8 mph - N/A Snow Light Snow
6:53 PM 21.7 °F 13.2 °F 18.7 °F 88% 30.19 in 3.0 mi ENE 6.9 mph - N/A Snow Light Snow
7:12 PM 22.3 °F 13.9 °F 19.4 °F 89% 30.18 in 3.0 mi ENE 6.9 mph - N/A Snow Light Snow
7:33 PM 22.6 °F 15.3 °F 20.3 °F 91% 30.17 in 2.5 mi ENE 5.8 mph - N/A Snow Light Snow
7:53 PM 23.0 °F 14.7 °F 20.5 °F 90% 30.15 in 4.0 mi ENE 6.9 mph - N/A Snow Light Snow
8:12 PM 23.4 °F 15.2 °F 21.0 °F 91% 30.14 in 2.5 mi ENE 6.9 mph - N/A Snow Light Snow
8:33 PM 23.9 °F 15.0 °F 21.4 °F 90% 30.12 in 4.0 mi ENE 8.1 mph - N/A Snow Light Snow
8:53 PM 23.9 °F 14.2 °F 21.7 °F 91% 30.11 in 3.0 mi ENE 9.2 mph - N/A Snow Light Snow
9:12 PM 24.6 °F 16.7 °F 22.1 °F 90% 30.10 in 5.0 mi ENE 6.9 mph - N/A Snow Light Snow
9:33 PM 24.8 °F 16.9 °F 22.1 °F 89% 30.08 in 3.0 mi NE 6.9 mph - N/A Snow Light Snow
9:53 PM 24.8 °F 16.1 °F 22.8 °F 92% 30.06 in 2.5 mi ENE 8.1 mph - N/A Snow Light Snow
10:12 PM 25.3 °F 17.6 °F 23.0 °F 91% 30.06 in 4.0 mi ENE 6.9 mph - N/A Snow Light Snow
10:33 PM 25.3 °F 17.6 °F 23.7 °F 94% 30.04 in 1.2 mi ENE 6.9 mph - N/A Snow Light Snow
10:52 PM 25.7 °F 18.0 °F 24.6 °F 96% 30.03 in 0.8 mi ENE 6.9 mph - N/A Snow Snow
11:13 PM 26.1 °F 17.6 °F 25.2 °F 96% 30.01 in 0.5 mi ENE 8.1 mph - N/A Snow Snow
11:33 PM 26.4 °F 17.3 °F 25.3 °F 96% 29.99 in 1.0 mi East 9.2 mph - N/A Snow Light Snow
11:52 PM 26.4 °F 17.3 °F 25.3 °F 96% 29.98 in 1.2 mi East 9.2 mph - N/A Snow Light Snow